TimeCST,TemperatureF,Dew PointF,Humidity,Sea Level PressureIn,VisibilityMPH,Wind Direction,Wind SpeedMPH,Gust SpeedMPH,PrecipitationIn,Events,Conditions,WindDirDegrees,DateUTC
12:16 AM,0.5,-2.4,88,30.35,10.0,Calm,Calm,-,N/A,,Clear,0,2013-03-07 06:16:00
12:35 AM,1.8,-0.4,91,30.35,10.0,Calm,Calm,-,N/A,,Clear,0,2013-03-07 06:35:00
12:56 AM,0.1,-2.7,88,30.34,10.0,Calm,Calm,-,N/A,,Clear,0,2013-03-07 06:56:00
1:16 AM,-1.7,-4.4,88,30.34,10.0,Calm,Calm,-,N/A,,Clear,0,2013-03-07 07:16:00
1:36 AM,-2.2,-4.7,89,30.34,10.0,Calm,Calm,-,N/A,,Clear,0,2013-03-07 07:36:00
1:55 AM,-0.8,-2.9,91,30.35,10.0,Calm,Calm,-,N/A,,Clear,0,2013-03-07 07:55:00
2:16 AM,-0.0,-2.6,89,30.36,10.0,Calm,Calm,-,N/A,,Clear,0,2013-03-07 08:16:00
2:35 AM,-0.6,-3.1,89,30.35,10.0,Calm,Calm,-,N/A,,Clear,0,2013-03-07 08:35:00
2:55 AM,-0.8,-3.3,89,30.35,10.0,Calm,Calm,-,N/A,,Clear,0,2013-03-07 08:55:00
3:16 AM,-0.8,-3.5,88,30.35,5.0,Calm,Calm,-,N/A,,Clear,0,2013-03-07 09:16:00
3:36 AM,-2.4,-5.1,88,30.35,10.0,Calm,Calm,-,N/A,,Scattered Clouds,0,2013-03-07 09:36:00
3:55 AM,-0.9,-3.6,88,30.34,10.0,Calm,Calm,-,N/A,,Mostly Cloudy,0,2013-03-07 09:55:00
4:16 AM,-0.4,-3.1,88,30.34,7.0,Calm,Calm,-,N/A,,Mostly Cloudy,0,2013-03-07 10:16:00
4:35 AM,-0.0,-2.7,88,30.34,1.8,Calm,Calm,-,N/A,,Overcast,0,2013-03-07 10:35:00
4:56 AM,-0.6,-3.1,89,30.35,2.5,Calm,Calm,-,N/A,,Overcast,0,2013-03-07 10:56:00
5:15 AM,-1.3,-4.2,88,30.35,0.5,Calm,Calm,-,N/A,Fog,Light Freezing Fog,0,2013-03-07 11:15:00
5:36 AM,-0.6,-3.3,88,30.35,0.2,Calm,Calm,-,N/A,Fog,Light Freezing Fog,0,2013-03-07 11:36:00
5:56 AM,-0.9,-3.6,88,30.35,0.2,Calm,Calm,-,N/A,Fog,Light Freezing Fog,0,2013-03-07 11:56:00
6:16 AM,-0.4,-3.1,88,30.36,0.2,Calm,Calm,-,N/A,Fog,Light Freezing Fog,0,2013-03-07 12:16:00
6:36 AM,0.1,-2.4,89,30.36,0.2,Calm,Calm,-,N/A,Fog,Light Freezing Fog,0,2013-03-07 12:36:00
6:55 AM,0.3,-2.2,89,30.35,0.2,Calm,Calm,-,N/A,Fog,Light Freezing Fog,0,2013-03-07 12:55:00
7:16 AM,0.3,-2.2,89,30.34,0.2,Calm,Calm,-,N/A,Fog,Light Freezing Fog,0,2013-03-07 13:16:00
7:35 AM,0.3,-2.0,90,30.34,1.0,Calm,Calm,-,N/A,,Overcast,0,2013-03-07 13:35:00
7:56 AM,3.7,1.6,91,30.34,3.0,Calm,Calm,-,N/A,,Mostly Cloudy,0,2013-03-07 13:56:00
8:16 AM,5.7,3.7,92,30.35,4.0,Calm,Calm,-,N/A,,Clear,0,2013-03-07 14:16:00
8:35 AM,5.9,3.7,91,30.36,4.0,Calm,Calm,-,N/A,,Clear,0,2013-03-07 14:35:00
8:55 AM,9.1,7.7,94,30.36,5.0,Calm,Calm,-,N/A,,Clear,0,2013-03-07 14:55:00
9:16 AM,10.9,9.3,93,30.37,5.0,Calm,Calm,-,N/A,,Clear,0,2013-03-07 15:16:00
9:35 AM,13.6,12.2,94,30.35,5.0,Calm,Calm,-,N/A,,Clear,0,2013-03-07 15:35:00
9:55 AM,15.6,14.4,95,30.36,7.0,Calm,Calm,-,N/A,,Clear,0,2013-03-07 15:55:00
10:16 AM,18.9,18.1,97,30.36,7.0,SE,4.6,-,N/A,,Clear,130,2013-03-07 16:16:00
10:36 AM,20.3,19.6,97,30.36,10.0,SE,6.9,-,N/A,,Clear,140,2013-03-07 16:36:00
10:56 AM,20.8,20.1,97,30.35,10.0,SSE,5.8,-,N/A,,Clear,150,2013-03-07 16:56:00
11:16 AM,22.8,20.1,89,30.35,10.0,SSE,8.1,-,N/A,,Clear,150,2013-03-07 17:16:00
11:35 AM,26.6,18.0,70,30.34,10.0,SE,8.1,-,N/A,,Clear,140,2013-03-07 17:35:00
11:55 AM,28.0,16.7,62,30.34,10.0,SE,6.9,-,N/A,,Clear,140,2013-03-07 17:55:00
12:15 PM,28.9,16.7,60,30.34,10.0,SSE,8.1,-,N/A,,Clear,150,2013-03-07 18:15:00
12:36 PM,29.3,17.1,60,30.34,10.0,SSE,9.2,-,N/A,,Clear,150,2013-03-07 18:36:00
12:56 PM,30.0,17.2,59,30.33,10.0,SE,6.9,-,N/A,,Clear,140,2013-03-07 18:56:00
1:15 PM,29.8,17.4,60,30.32,10.0,SSE,6.9,-,N/A,,Clear,150,2013-03-07 19:15:00
1:36 PM,31.1,18.1,59,30.31,10.0,SE,9.2,-,N/A,,Clear,140,2013-03-07 19:36:00
1:56 PM,31.5,17.4,56,30.31,10.0,SE,9.2,-,N/A,,Clear,140,2013-03-07 19:56:00
2:15 PM,31.5,17.8,57,30.30,10.0,SE,8.1,-,N/A,,Clear,130,2013-03-07 20:15:00
2:36 PM,31.8,17.4,55,30.29,10.0,SE,6.9,-,N/A,,Clear,140,2013-03-07 20:36:00
2:56 PM,32.0,16.7,53,30.29,10.0,SE,8.1,-,N/A,,Clear,130,2013-03-07 20:56:00
3:15 PM,32.0,17.4,55,30.29,10.0,SE,8.1,-,N/A,,Clear,130,2013-03-07 21:15:00
3:36 PM,32.0,18.0,56,30.28,10.0,ESE,8.1,-,N/A,,Clear,110,2013-03-07 21:36:00
3:55 PM,31.8,16.9,54,30.28,10.0,ESE,10.4,-,N/A,,Clear,120,2013-03-07 21:55:00
4:16 PM,31.3,17.6,57,30.28,10.0,ESE,6.9,-,N/A,,Clear,120,2013-03-07 22:16:00
4:36 PM,31.1,17.2,57,30.27,10.0,ESE,11.5,-,N/A,,Clear,120,2013-03-07 22:36:00
4:55 PM,30.2,17.2,59,30.27,10.0,ESE,9.2,-,N/A,,Clear,110,2013-03-07 22:55:00
5:16 PM,29.8,17.2,59,30.27,10.0,East,5.8,-,N/A,,Clear,100,2013-03-07 23:16:00
5:36 PM,28.4,17.6,64,30.27,10.0,ESE,6.9,-,N/A,,Clear,110,2013-03-07 23:36:00
5:55 PM,27.5,17.4,66,30.26,10.0,ESE,8.1,-,N/A,,Clear,110,2013-03-07 23:55:00
7:35 PM,26.1,17.6,70,30.26,10.0,ESE,9.2,-,N/A,,Clear,120,2013-03-08 01:35:00
7:56 PM,25.7,17.6,71,30.25,10.0,ESE,5.8,-,N/A,,Clear,120,2013-03-08 01:56:00
8:16 PM,25.5,17.4,71,30.26,10.0,ESE,5.8,-,N/A,,Clear,120,2013-03-08 02:16:00
8:35 PM,24.1,16.7,73,30.27,10.0,SE,4.6,-,N/A,,Clear,130,2013-03-08 02:35:00
8:56 PM,23.0,15.8,74,30.26,10.0,ESE,4.6,-,N/A,,Clear,120,2013-03-08 02:56:00
9:16 PM,21.6,15.4,77,30.27,10.0,SE,3.5,-,N/A,,Clear,130,2013-03-08 03:16:00
9:34 PM,20.8,14.9,78,30.27,10.0,ESE,3.5,-,N/A,,Clear,120,2013-03-08 03:34:00
9:56 PM,18.9,14.5,83,30.28,10.0,Calm,Calm,-,N/A,,Clear,0,2013-03-08 03:56:00
10:15 PM,16.3,12.2,84,30.29,10.0,Calm,Calm,-,N/A,,Clear,0,2013-03-08 04:15:00
10:36 PM,16.3,13.3,88,30.28,10.0,Calm,Calm,-,N/A,,Clear,0,2013-03-08 04:36:00
10:56 PM,14.0,11.8,91,30.28,10.0,Calm,Calm,-,N/A,,Clear,0,2013-03-08 04:56:00
11:15 PM,14.5,12.9,93,30.29,10.0,Calm,Calm,-,N/A,,Clear,0,2013-03-08 05:15:00
11:36 PM,16.7,14.9,93,30.28,10.0,SE,4.6,-,N/A,,Clear,130,2013-03-08 05:36:00
11:56 PM,13.5,11.5,92,30.28,10.0,SSE,3.5,-,N/A,,Clear,150,2013-03-08 05:56:00